Location: Hilton Head Island
(32.2163°N, 80.7526°W)
Time: 00:25:30
(UTC-05:00)

Vanguard 2 Rocket - Pass Details

Date: 22 February 2026
Orbit: 553 x 3287 km, 32.9° (Epoch: 5 March)

Event Time Altitude Azimuth Distance (km) Brightness Sun altitude
Rises 08:08:12 0° 201° (SSW) 6,183 11.2 13.4°
Reaches altitude 10° 08:12:46 10° 191° (S) 5,512 11.1 14.3°
Maximum altitude 08:27:09 31° 137° (SE) 4,629 11.9 17.1°
Drops below altitude 10° 08:42:52 10° 85° (E) 6,091 12.2 20.1°
Sets 08:48:08 0° 76° (ENE) 6,908 12.1 21.1°
